Flippin, AR

12:12 AM CDT on July 21, 2017 (GMT -0500)
Marion County Regional

Weather History for KFLP - September, 2013

Change the Weather History Date:

Wednesday, September 4, 2013

  Actual Average Record
Temperature  
Mean Temperature 72 °F -  
Max Temperature 86 °F 86 °F 102 °F (1998)
Min Temperature 57 °F 62 °F 51 °F (2010)
Cooling Degree Days 6    
Growing Degree Days 22 (Base 50)    
Moisture  
Dew Point 53 °F    
Average Humidity 54    
Maximum Humidity 77    
Minimum Humidity 33    
Precipitation  
Precipitation 0.00 in - - ()
Sea Level Pressure  
Sea Level Pressure 30.12 in    
Wind  
Wind Speed 1 mph (ESE)    
Max Wind Speed 6 mph    
Max Gust Speed -    
Visibility 10 miles    
Events      
Averages and records for this station are not official NWS values.
T = Trace of Precipitation, MM = Missing Value Source: NWS Daily Summary

Daily Weather History Graph

Daily Weather History Graph

Search for Another Location

Airport or City:

Trip Planner

Search our weather history database for the weather conditions in past years. The results will help you decide how hot, cold, wet, or windy it might be!

Date:

Astronomy

Sep. 04, 2013 Rise Set
Actual Time 6:44 AM CDT 7:33 PM CDT
Civil Twilight 6:18 AM CDT 7:59 PM CDT
Nautical Twilight 5:47 AM CDT 8:30 PM CDT
Astronomical Twilight 5:15 AM CDT 9:02 PM CDT
Moon 5:56 AM CDT (9/4) 6:54 PM CDT (9/4)
Length of Visible Light 13h 41m
Length of Day
12h 49m
Waning Crescent, 1% of the Moon is Illuminated
Sep 4
Waning Crescent
Sep 5
New
Sep 12
First Quarter
Sep 19
Full
Sep 26
Last Quarter

Hourly Weather History & Observations

Time (CDT) Temp. Heat Index Dew Point Humidity Pressure Visibility Wind Dir Wind Speed Gust Speed Precip Events Conditions
12:15 AM 64.4 °F - 53.6 °F 68% 30.07 in 10.0 mi Calm Calm - N/A   Clear
12:35 AM 62.6 °F - 53.6 °F 72% 30.07 in 10.0 mi Calm Calm - N/A   Clear
12:56 AM 62.6 °F - 53.6 °F 72% 30.07 in 10.0 mi Calm Calm - N/A   Clear
1:15 AM 62.6 °F - 51.8 °F 68% 30.07 in 10.0 mi Calm Calm - N/A   Clear
1:35 AM 62.6 °F - 51.8 °F 68% 30.07 in 10.0 mi Calm Calm - N/A   Clear
1:55 AM 62.6 °F - 51.8 °F 68% 30.07 in 10.0 mi Calm Calm - N/A   Clear
2:15 AM 62.6 °F - 51.8 °F 68% 30.07 in 10.0 mi Calm Calm - N/A   Clear
2:35 AM 60.8 °F - 51.8 °F 72% 30.07 in 10.0 mi Calm Calm - N/A   Clear
2:55 AM 60.8 °F - 51.8 °F 72% 30.07 in 10.0 mi Calm Calm - N/A   Clear
3:35 AM 60.8 °F - 51.8 °F 72% 30.08 in 10.0 mi Calm Calm - N/A   Clear
4:15 AM 59.0 °F - 50.0 °F 72% 30.08 in 10.0 mi Calm Calm - N/A   Clear
4:36 AM 59.0 °F - 50.0 °F 72% 30.08 in 10.0 mi Calm Calm - N/A   Clear
4:55 AM 60.8 °F - 51.8 °F 72% 30.09 in 10.0 mi Calm Calm - N/A   Clear
5:15 AM 59.0 °F - 50.0 °F 72% 30.09 in 10.0 mi Calm Calm - N/A   Clear
5:36 AM 57.2 °F - 48.2 °F 72% 30.10 in 10.0 mi Calm Calm - N/A   Clear
5:55 AM 57.2 °F - 48.2 °F 72% 30.10 in 10.0 mi Calm Calm - N/A   Clear
6:15 AM 57.2 °F - 48.2 °F 72% 30.11 in 2.5 mi Calm Calm - N/A   Scattered Clouds
6:35 AM 57.2 °F - 48.2 °F 72% 30.11 in 10.0 mi Calm Calm - N/A   Partly Cloudy
6:55 AM 57.2 °F - 48.2 °F 72% 30.12 in 10.0 mi Calm Calm - N/A   Clear
7:15 AM 57.2 °F - 48.2 °F 72% 30.12 in 10.0 mi Calm Calm - N/A   Clear
7:35 AM 57.2 °F - 50.0 °F 77% 30.13 in 10.0 mi Calm Calm - N/A   Clear
7:55 AM 60.8 °F - 51.8 °F 72% 30.13 in 10.0 mi Calm Calm - N/A   Clear
9:15 AM 68.0 °F - 55.4 °F 64% 30.16 in 10.0 mi Calm Calm - N/A   Clear
9:35 AM 69.8 °F - 55.4 °F 60% 30.17 in 10.0 mi Calm Calm - N/A   Clear
9:55 AM 71.6 °F - 55.4 °F 57% 30.17 in 10.0 mi Calm Calm - N/A   Clear
10:16 AM 73.4 °F - 55.4 °F 53% 30.17 in 10.0 mi Calm Calm - N/A   Clear
10:35 AM 73.4 °F - 55.4 °F 53% 30.18 in 10.0 mi Calm Calm - N/A   Clear
10:55 AM 77.0 °F - 55.4 °F 47% 30.18 in 10.0 mi Calm Calm - N/A   Clear
11:16 AM 78.8 °F - 55.4 °F 44% 30.18 in 10.0 mi SSE 3.5 mph - N/A   Clear
11:35 AM 80.6 °F 80.5 °F 55.4 °F 42% 30.18 in 10.0 mi SSE 3.5 mph - N/A   Clear
11:55 AM 80.6 °F 80.3 °F 53.6 °F 39% 30.17 in 10.0 mi SE 4.6 mph - N/A   Clear
12:16 PM 80.6 °F 80.3 °F 53.6 °F 39% 30.17 in 10.0 mi Calm Calm - N/A   Clear
12:35 PM 82.4 °F 81.4 °F 53.6 °F 37% 30.16 in 10.0 mi East 5.8 mph - N/A   Clear
12:55 PM 82.4 °F 81.4 °F 53.6 °F 37% 30.16 in 10.0 mi NNE 5.8 mph - N/A   Clear
1:35 PM 82.4 °F 81.4 °F 53.6 °F 37% 30.15 in 10.0 mi Calm Calm - N/A   Clear
1:55 PM 84.2 °F 82.8 °F 53.6 °F 35% 30.14 in 10.0 mi NNE 4.6 mph - N/A   Clear
2:15 PM 84.2 °F 82.8 °F 53.6 °F 35% 30.14 in 10.0 mi SSW 4.6 mph - N/A   Clear
2:35 PM 84.2 °F 82.8 °F 53.6 °F 35% 30.13 in 10.0 mi Calm Calm - N/A   Clear
2:55 PM 84.2 °F 82.8 °F 53.6 °F 35% 30.13 in 10.0 mi NW 3.5 mph - N/A   Clear
3:15 PM 86.0 °F 84.5 °F 55.4 °F 35% 30.12 in 10.0 mi South 4.6 mph - N/A   Clear
3:36 PM 86.0 °F 84.2 °F 53.6 °F 33% 30.11 in 10.0 mi NNE 3.5 mph - N/A   Clear
3:55 PM 86.0 °F 84.2 °F 53.6 °F 33% 30.11 in 10.0 mi East 5.8 mph - N/A   Clear
4:15 PM 86.0 °F 84.2 °F 53.6 °F 33% 30.11 in 10.0 mi ESE 3.5 mph - N/A   Clear
4:35 PM 86.0 °F 84.2 °F 53.6 °F 33% 30.11 in 10.0 mi East 3.5 mph - N/A   Clear
4:55 PM 86.0 °F 84.2 °F 53.6 °F 33% 30.10 in 10.0 mi ESE 3.5 mph - N/A   Clear
5:35 PM 84.2 °F - 51.8 °F 33% 30.09 in 10.0 mi SE 3.5 mph - N/A   Clear
5:55 PM 84.2 °F - 51.8 °F 33% 30.09 in 10.0 mi Calm Calm - N/A   Clear
6:15 PM 84.2 °F 82.8 °F 53.6 °F 35% 30.09 in 10.0 mi Calm Calm - N/A   Clear
6:35 PM 82.4 °F - 51.8 °F 35% 30.09 in 10.0 mi Calm Calm - N/A   Clear
6:55 PM 82.4 °F - 51.8 °F 35% 30.09 in 10.0 mi Calm Calm - N/A   Clear
7:15 PM 80.6 °F 80.3 °F 53.6 °F 39% 30.09 in 10.0 mi Calm Calm - N/A   Clear
8:35 PM 73.4 °F - 53.6 °F 50% 30.11 in 10.0 mi Calm Calm - N/A   Clear
8:55 PM 71.6 °F - 53.6 °F 53% 30.11 in 10.0 mi Calm Calm - N/A   Clear
9:15 PM 69.8 °F - 53.6 °F 56% 30.13 in 10.0 mi Calm Calm - N/A   Clear
9:55 PM 69.8 °F - 53.6 °F 56% 30.13 in 10.0 mi Calm Calm - N/A   Clear
10:15 PM 66.2 °F - 53.6 °F 64% 30.13 in 10.0 mi Calm Calm - N/A   Clear
10:35 PM 66.2 °F - 53.6 °F 64% 30.14 in 10.0 mi Calm Calm - N/A   Clear
10:55 PM 64.4 °F - 53.6 °F 68% 30.15 in 10.0 mi Calm Calm - N/A   Clear
11:15 PM 64.4 °F - 53.6 °F 68% 30.15 in 10.0 mi Calm Calm - N/A   Clear